Wind_Speed
12 13 15 15 16 16 16 16 16 17 18 18 18 20 22 23 25 28 30 32 34 37 40 43 46 50 54 58 62 65 69 73 76 80 83 85 85 82 78 74 70 68 66 64
11 13 14 14 14 14 14 15 15 16 17 17 18 20 23 24 26 28 30 32 35 38 41 45 48 52 56 59 63 67 70 74 77 81 83 84 82 78 74 70 68 66 64 62
11 12 12 12 13 13 14 14 15 16 16 17 18 20 23 25 27 28 31 34 36 39 43 46 50 54 57 61 64 68 71 74 78 81 82 82 79 76 71 68 65 64 63 61
9 10 11 11 12 12 13 14 15 16 17 18 20 20 24 26 27 30 32 35 38 41 44 48 52 55 59 62 65 68 72 75 78 80 81 79 76 72 69 65 64 63 62 61
8 8 9 10 11 12 13 14 15 16 17 19 21 22 25 27 29 31 34 36 39 42 46 49 53 56 59 63 66 69 72 75 78 79 80 77 74 70 67 64 63 62 61 62
6 7 8 9 10 12 13 14 15 16 17 19 23 25 27 28 30 33 35 38 40 44 47 50 54 57 60 63 66 69 72 75 77 78 78 75 72 68 65 63 62 61 61 62
5 6 7 9 10 12 13 15 16 18 19 21 24 26 27 29 31 33 36 39 42 45 48 51 54 57 61 64 67 69 72 74 76 77 76 73 70 66 64 62 61 61 61 62
4 5 7 8 10 12 14 16 18 20 21 20 23 26 28 30 32 35 37 40 43 46 49 52 55 58 61 64 66 69 71 73 75 75 74 71 68 65 63 62 61 61 61 62
3 4 6 8 10 13 14 16 18 20 21 22 24 27 30 32 34 36 38 41 44 47 50 53 56 58 61 64 66 69 71 72 73 73 72 70 67 64 62 61 61 61 61 62
3 4 5 8 10 12 15 17 19 22 25 27 27 30 33 35 37 38 40 42 45 48 51 54 56 59 61 64 66 68 70 72 72 72 70 68 65 63 61 60 60 60 61 61
3 4 5 7 9 12 15 17 20 23 25 29 31 33 35 37 38 40 42 44 46 49 52 54 57 59 61 64 66 68 69 71 71 71 69 67 64 62 61 60 60 60 60 60
4 4 6 7 10 12 15 17 20 23 25 27 30 33 36 38 40 42 44 46 48 50 52 55 57 59 62 64 66 67 69 70 70 70 68 66 63 61 60 59 59 59 59 60
6 6 7 8 10 13 15 18 20 22 25 27 30 33 37 39 42 44 46 48 50 51 54 56 58 60 62 64 65 67 68 69 69 69 67 65 62 61 59 58 58 58 58 59
8 8 8 9 11 13 15 18 20 23 25 28 30 33 37 40 43 45 48 50 52 53 55 57 59 61 62 64 65 67 68 68 69 68 66 64 62 60 59 58 58 57 57 58
11 10 10 11 12 14 16 19 21 23 26 29 31 34 38 41 44 47 49 52 54 56 57 58 60 61 63 64 65 66 67 68 68 67 65 64 61 59 58 57 57 57 56 57
13 13 12 13 14 15 17 19 22 24 26 29 32 34 38 42 45 48 51 53 55 58 60 60 61 62 63 64 65 66 67 67 67 66 65 63 61 59 58 57 56 56 56 56
16 16 15 15 16 16 18 19 22 25 27 30 33 36 39 42 45 49 52 54 56 59 62 63 62 62 63 64 65 66 66 67 67 66 64 62 60 59 57 57 56 55 55 55
20 19 19 18 18 19 20 21 23 25 28 31 33 37 39 42 46 49 52 55 57 60 63 64 64 64 63 64 65 66 66 66 66 65 64 62 60 58 57 56 55 55 54 54
24 23 23 22 22 22 22 24 25 27 28 32 35 37 40 43 46 49 52 55 58 60 63 65 66 65 64 64 65 66 66 66 66 65 64 62 59 57 56 55 55 54 54 54
27 27 26 26 26 25 26 27 28 30 31 33 36 39 41 44 47 49 52 55 58 60 63 65 67 67 65 65 65 65 65 65 65 65 63 62 59 57 56 55 54 54 54 53
30 30 29 29 29 28 29 30 31 31 34 36 38 40 42 45 47 49 52 55 58 60 62 65 67 68 67 65 65 65 65 65 65 65 64 62 59 57 55 54 54 53 53 53
34 33 33 32 31 31 32 32 33 34 34 36 38 41 43 45 47 49 52 55 57 60 62 64 66 68 68 66 65 65 65 65 64 64 63 62 59 57 55 54 53 53 52 52
38 37 37 35 33 34 34 34 35 36 37 38 39 41 43 46 47 49 51 54 57 59 61 63 65 67 68 67 65 65 65 65 64 63 63 62 60 57 55 53 52 52 51 51
41 40 40 38 34 35 37 37 38 39 39 40 41 42 44 46 48 48 50 53 56 59 61 62 64 66 68 67 66 65 64 64 63 63 62 61 60 57 55 52 52 51 50 50
45 43 41 40 37 38 39 39 40 40 41 41 42 43 45 47 48 49 50 52 56 58 60 61 63 65 67 67 66 65 64 63 63 62 62 61 59 57 55 53 51 50 50 50
45 43 43 42 40 43 42 41 42 42 43 43 44 45 46 47 48 49 49 52 55 57 59 60 61 63 65 67 66 65 63 63 62 61 61 60 59 57 54 52 51 51 50 50
Wind_Direction
311 317 321 325 328 330 333 335 335 335 336 336 334 331 334 335 334 333 332 330 330 329 329 329 329 328 328 328 328 327 327 326 326 325 324 324 324 324 324 324 324 323 322 321
317 322 327 331 333 336 338 340 340 340 339 338 338 333 335 336 335 333 332 331 331 330 331 331 331 330 330 330 329 329 328 327 327 326 326 326 326 326 327 326 326 326 325 324
321 328 333 337 341 343 344 344 344 343 342 340 341 336 335 337 336 335 334 333 332 332 332 332 332 332 331 331 330 330 329 328 328 328 328 328 328 329 329 329 328 328 327 326
325 333 340 346 349 349 349 348 348 347 345 342 342 341 338 340 339 336 335 333 333 333 334 333 333 333 332 332 331 331 330 330 330 330 330 330 331 331 331 331 331 330 330 329
332 341 351 356 357 357 355 354 353 352 349 343 342 343 342 342 340 337 335 334 334 335 335 334 334 334 333 333 332 332 332 332 332 331 332 332 333 333 333 333 333 333 332 331
344 355 3 6 7 6 4 2 0 357 353 346 344 344 344 343 341 337 336 336 336 336 335 335 335 335 335 334 334 334 333 333 333 333 334 335 335 335 336 336 336 335 335 335
351 4 10 12 12 11 10 8 6 5 359 351 346 345 346 344 341 339 338 338 337 337 336 336 336 336 336 336 335 335 335 335 335 336 336 337 337 337 338 338 338 338 338 339
354 4 12 15 16 15 13 11 9 6 3 357 350 348 348 346 343 342 341 339 338 338 338 337 337 337 337 337 337 337 337 337 337 338 338 339 339 339 339 340 340 341 341 342
352 6 13 17 18 19 18 14 10 8 8 5 358 354 353 351 347 344 342 341 340 340 339 339 339 339 339 338 338 338 338 338 339 340 340 340 341 341 342 342 343 344 344 345
339 358 10 16 17 18 17 15 12 8 6 7 4 359 357 354 350 346 344 342 341 341 341 340 340 340 340 340 339 339 340 340 341 341 342 342 343 343 344 344 345 346 347 348
317 342 358 5 12 13 13 13 12 10 7 4 4 359 359 356 353 350 347 344 343 343 342 342 342 341 341 341 341 341 341 342 343 343 344 344 344 345 346 346 347 348 349 351
296 324 342 354 359 4 5 7 8 8 8 5 3 358 359 357 355 353 350 347 345 344 344 344 343 343 342 342 342 342 343 344 344 345 345 346 346 347 348 348 349 350 352 353
284 305 325 337 346 353 357 360 2 4 4 4 3 360 358 357 356 355 353 351 349 346 346 345 345 344 344 343 344 344 344 345 346 346 347 347 348 349 350 350 351 352 354 355
276 290 307 323 336 343 347 350 354 357 360 1 1 0 358 358 357 355 354 354 352 349 347 346 346 346 345 345 345 345 346 346 347 348 348 349 349 350 351 352 353 354 355 357
273 284 298 312 323 332 337 342 346 350 353 355 357 357 358 357 357 356 355 354 354 352 350 348 347 347 346 346 346 346 347 348 348 349 349 350 351 351 352 353 354 355 356 358
272 280 292 303 313 322 328 333 338 343 347 350 352 354 355 355 355 355 355 354 354 353 352 350 348 347 347 347 347 347 348 349 349 350 351 351 352 352 353 354 355 356 358 359
269 275 283 292 301 309 316 325 332 337 341 345 348 350 352 353 353 354 354 354 354 354 354 352 350 348 348 348 348 348 349 349 350 351 352 352 353 353 354 355 356 357 359 360
268 272 277 285 293 301 310 318 324 331 335 339 342 345 348 350 351 351 352 352 353 353 354 353 351 350 349 348 349 349 349 350 351 352 353 353 353 354 355 356 357 358 359 0
267 271 275 281 287 295 303 311 318 324 329 333 337 340 343 346 348 349 350 350 351 352 352 353 352 351 349 349 349 349 350 350 351 352 353 354 354 355 356 356 358 359 360 1
267 270 274 280 286 293 300 307 312 317 322 328 333 336 339 341 344 347 348 348 349 350 351 351 352 351 350 349 349 350 350 351 352 352 353 354 354 355 356 357 358 359 0 1
265 268 273 278 284 291 297 302 308 314 320 325 329 332 335 337 340 342 345 346 347 348 349 350 351 351 350 349 349 350 350 351 351 352 353 354 355 355 356 357 358 359 0 1
265 268 271 275 282 289 293 298 303 309 314 318 323 326 330 333 335 338 341 343 345 346 347 348 350 350 351 350 349 350 350 350 351 352 353 354 355 356 356 357 358 359 0 1
264 267 270 274 281 285 289 294 299 303 308 312 317 321 325 328 331 334 337 340 342 343 345 346 348 349 350 350 349 349 350 350 351 352 353 354 354 355 356 357 358 359 0 1
264 266 270 274 278 282 285 289 293 298 302 307 311 316 319 323 327 330 333 336 339 341 342 344 346 347 349 349 349 349 349 349 350 352 353 354 354 355 356 357 357 358 360 1
264 266 270 273 277 278 281 286 290 293 298 302 306 310 314 318 322 325 329 332 335 338 340 342 344 346 347 348 348 348 348 349 350 351 352 353 354 354 355 356 357 358 359 360
265 268 271 273 275 276 278 281 285 289 293 297 301 305 309 313 317 321 324 328 332 335 337 339 342 344 345 347 347 348 348 348 349 350 352 353 354 354 354 355 356 357 358 359
Height
5898 5896 5893 5891 5889 5886 5883 5881 5878 5875 5871 5868 5865 5861 5857 5853 5849 5844 5838 5833 5826 5820 5813 5805 5796 5787 5776 5765 5753 5741 5728 5713 5698 5681 5664 5645 5627 5609 5592 5576 5562 5548 5536 5523
5897 5894 5892 5889 5886 5884 5881 5879 5876 5873 5869 5866 5863 5859 5855 5850 5846 5840 5835 5828 5822 5814 5807 5798 5789 5779 5768 5756 5744 5731 5717 5702 5686 5669 5651 5633 5614 5597 5580 5565 5550 5536 5523 5510
5894 5893 5890 5887 5885 5882 5879 5877 5874 5871 5868 5864 5861 5857 5852 5847 5842 5837 5830 5823 5816 5809 5800 5791 5781 5771 5759 5747 5735 5721 5707 5691 5675 5657 5639 5620 5602 5585 5569 5554 5540 5525 5512 5498
5893 5891 5888 5886 5883 5880 5878 5875 5872 5868 5865 5862 5859 5855 5849 5844 5838 5832 5826 5819 5811 5803 5794 5784 5774 5763 5751 5739 5726 5712 5697 5681 5664 5646 5628 5609 5592 5576 5560 5545 5530 5515 5501 5487
5891 5889 5887 5884 5882 5879 5876 5873 5870 5866 5862 5859 5855 5851 5847 5840 5834 5828 5821 5814 5805 5797 5787 5778 5767 5756 5744 5731 5717 5702 5687 5670 5653 5635 5617 5599 5582 5565 5550 5535 5521 5506 5491 5476
5890 5887 5885 5883 5880 5878 5874 5872 5868 5865 5861 5857 5852 5847 5843 5836 5830 5823 5816 5808 5800 5791 5781 5771 5760 5748 5736 5723 5708 5693 5677 5661 5643 5625 5607 5589 5573 5557 5542 5527 5513 5498 5483 5467
5888 5886 5884 5881 5879 5876 5873 5871 5867 5863 5859 5855 5849 5843 5840 5833 5826 5819 5811 5803 5794 5785 5775 5765 5753 5741 5728 5715 5700 5685 5668 5652 5634 5616 5598 5581 5565 5549 5534 5519 5505 5490 5474 5458
5886 5885 5883 5880 5878 5875 5871 5868 5865 5861 5857 5853 5847 5841 5837 5830 5822 5814 5806 5798 5789 5780 5769 5758 5747 5734 5721 5707 5692 5677 5660 5644 5626 5608 5590 5573 5557 5542 5527 5512 5497 5481 5466 5450
5885 5884 5881 5878 5876 5873 5870 5866 5863 5859 5855 5850 5844 5838 5832 5824 5817 5810 5802 5793 5784 5774 5763 5752 5740 5727 5714 5700 5685 5669 5653 5636 5619 5601 5584 5567 5551 5535 5520 5505 5490 5475 5459 5443
5883 5882 5880 5877 5874 5871 5868 5865 5861 5855 5850 5846 5841 5834 5828 5820 5813 5805 5797 5788 5778 5768 5757 5746 5734 5721 5707 5693 5678 5662 5646 5629 5612 5595 5577 5561 5545 5529 5514 5499 5484 5469 5453 5437
5882 5880 5878 5876 5873 5870 5867 5863 5858 5853 5847 5841 5836 5833 5825 5817 5809 5801 5792 5783 5773 5763 5751 5740 5727 5714 5701 5686 5671 5656 5640 5623 5606 5588 5572 5555 5540 5524 5509 5494 5480 5465 5449 5434
5879 5878 5876 5874 5871 5867 5864 5860 5856 5852 5846 5840 5834 5831 5821 5813 5805 5797 5788 5778 5768 5757 5746 5734 5721 5708 5694 5680 5665 5650 5634 5617 5600 5583 5567 5551 5535 5520 5505 5491 5476 5461 5446 5430
5877 5876 5874 5871 5870 5866 5861 5857 5853 5849 5844 5838 5832 5828 5818 5810 5801 5793 5783 5773 5763 5752 5740 5728 5715 5702 5688 5674 5659 5644 5628 5612 5595 5578 5562 5547 5531 5517 5502 5488 5473 5458 5444 5428
5874 5872 5871 5869 5865 5862 5859 5855 5850 5846 5841 5836 5830 5824 5815 5806 5798 5789 5779 5769 5758 5747 5735 5723 5710 5697 5683 5669 5654 5638 5623 5607 5591 5574 5559 5543 5528 5514 5499 5485 5471 5456 5442 5428
5870 5869 5867 5865 5862 5859 5855 5852 5847 5842 5837 5832 5827 5819 5812 5803 5795 5785 5775 5764 5754 5742 5730 5718 5705 5692 5678 5664 5649 5634 5618 5603 5587 5571 5555 5540 5525 5511 5497 5483 5469 5455 5441 5427
5866 5865 5863 5861 5858 5855 5852 5848 5843 5838 5834 5828 5822 5816 5808 5800 5790 5781 5771 5761 5750 5738 5726 5713 5700 5687 5673 5659 5644 5629 5614 5599 5583 5568 5553 5538 5523 5509 5495 5482 5468 5454 5440 5427
5862 5861 5859 5857 5854 5852 5849 5845 5840 5835 5830 5824 5818 5812 5804 5796 5787 5777 5768 5757 5746 5734 5722 5709 5696 5683 5669 5655 5640 5626 5611 5596 5580 5565 5550 5535 5521 5507 5494 5480 5467 5454 5441 5427
5857 5855 5854 5852 5850 5847 5846 5840 5836 5831 5826 5820 5813 5807 5800 5792 5783 5773 5763 5753 5742 5730 5718 5705 5692 5679 5665 5651 5637 5622 5608 5593 5578 5563 5548 5534 5520 5506 5493 5480 5467 5454 5441 5428
5851 5849 5848 5846 5844 5842 5839 5835 5830 5826 5822 5815 5809 5802 5795 5787 5779 5770 5760 5749 5738 5727 5715 5702 5689 5675 5661 5647 5634 5619 5605 5590 5576 5561 5547 5533 5519 5505 5492 5480 5467 5454 5441 5429
5844 5842 5842 5839 5837 5835 5834 5829 5824 5821 5816 5810 5803 5796 5789 5781 5774 5766 5755 5745 5734 5723 5711 5698 5685 5672 5658 5644 5630 5616 5602 5588 5574 5560 5545 5531 5518 5505 5492 5479 5467 5454 5442 5429
5836 5835 5834 5832 5829 5828 5826 5821 5817 5814 5809 5803 5796 5790 5783 5776 5768 5760 5750 5740 5730 5719 5707 5695 5682 5669 5655 5641 5627 5614 5600 5586 5572 5558 5544 5530 5517 5504 5492 5479 5467 5455 5442 5429
5828 5827 5826 5824 5823 5823 5817 5813 5810 5807 5802 5796 5790 5784 5778 5770 5762 5754 5745 5736 5726 5715 5703 5691 5679 5666 5652 5638 5625 5611 5598 5584 5570 5557 5543 5530 5517 5504 5491 5479 5467 5455 5443 5431
5819 5818 5817 5817 5818 5813 5809 5805 5802 5798 5794 5789 5784 5778 5771 5764 5757 5749 5740 5731 5721 5711 5700 5688 5676 5663 5649 5636 5622 5609 5595 5582 5568 5555 5542 5529 5515 5503 5491 5479 5467 5456 5444 5433
5809 5808 5807 5807 5809 5804 5800 5797 5793 5789 5786 5781 5776 5771 5765 5758 5751 5743 5735 5726 5716 5706 5696 5684 5672 5660 5647 5633 5620 5606 5593 5580 5567 5554 5540 5527 5514 5502 5490 5479 5468 5457 5446 5435
5798 5798 5797 5797 5798 5794 5791 5787 5784 5780 5777 5773 5768 5763 5757 5751 5744 5737 5729 5720 5711 5702 5691 5680 5669 5657 5644 5631 5617 5604 5591 5578 5565 5552 5539 5526 5513 5501 5489 5478 5468 5457 5446 5436
5788 5789 5787 5787 5786 5782 5781 5778 5774 5771 5768 5763 5759 5755 5749 5743 5737 5730 5722 5714 5706 5697 5687 5676 5665 5653 5641 5628 5615 5602 5589 5576 5564 5551 5538 5526 5513 5501 5488 5477 5466 5455 5446 5435